This is the latest recevied weather packets stored in our database for station/object KC4JIR. If no packets are shown the sender has not sent any weather packets the latest 10 day(s).
| Time | Temp. | Humidity | Pressure | Rain* | Wind** | Luminosity | Snow |
|---|---|---|---|---|---|---|---|
| 1777855242 | 16.11° C | 56% | 1014.7 hPa | 0 mm | - | 0 W/m² | - |
| 1777854938 | 16.67° C | 54% | 1014.7 hPa | 0 mm | - | 0 W/m² | - |
| 1777854635 | 16.67° C | 59% | 1014.4 hPa | 0 mm | - | 0 W/m² | - |
| 1777854332 | 17.22° C | 53% | 1014.4 hPa | 0 mm | - | 0 W/m² | - |
| 1777854029 | 17.22° C | 58% | 1014.5 hPa | 0 mm | - | 0 W/m² | - |
| 1777853727 | 17.22° C | 51% | 1014.5 hPa | 0 mm | - | 1 W/m² | - |
| 1777853422 | 17.78° C | 53% | 1014.5 hPa | 0 mm | - | 3 W/m² | - |
| 1777853120 | 17.78° C | 55% | 1014.4 hPa | 0 mm | - | 4 W/m² | - |
| 1777852817 | 18.33° C | 57% | 1014.3 hPa | 0 mm | - | 6 W/m² | - |
| 1777852515 | 18.33° C | 50% | 1014.2 hPa | 0 mm | - | 8 W/m² | - |
| 1777852212 | 18.89° C | 47% | 1014.5 hPa | 0 mm | - | 11 W/m² | - |
| 1777851909 | 19.44° C | 46% | 1014.4 hPa | 0 mm | - | 13 W/m² | - |
| 1777851608 | 19.44° C | 47% | 1014.3 hPa | 0 mm | - | 15 W/m² | - |
| 1777851304 | 20° C | 44% | 1014.3 hPa | 0 mm | - | 17 W/m² | - |
| 1777851000 | 20.56° C | 45% | 1014.4 hPa | 0 mm | - | 19 W/m² | - |
| 1777850697 | 21.11° C | 50% | 1014.4 hPa | 0 mm | - | 21 W/m² | - |
| 1777850395 | 21.67° C | 39% | 1014.4 hPa | 0 mm | - | 22 W/m² | - |
| 1777850092 | 21.67° C | 36% | 1014.4 hPa | 0 mm | - | 23 W/m² | - |
| 1777849788 | 22.22° C | 42% | 1014.4 hPa | 0 mm | - | 26 W/m² | - |
| 1777849485 | 22.22° C | 35% | 1014.5 hPa | 0 mm | - | 28 W/m² | - |
| 1777849183 | 22.22° C | 33% | 1014.2 hPa | 0 mm | - | 30 W/m² | - |
| 1777848879 | 23.33° C | 33% | 1014.6 hPa | 0 mm | - | 32 W/m² | - |
| 1777848575 | 23.89° C | 32% | 1014.3 hPa | 0 mm | - | 35 W/m² | - |
| 1777848272 | 24.44° C | 30% | 1014.4 hPa | 0 mm | - | 150 W/m² | - |
| 1777847970 | 23.89° C | 32% | 1014.5 hPa | 0 mm | - | 162 W/m² | - |
* Rain latest hour (hover to see other rain measurements)
** Current wind speed in m/s (hover to see current wind gust speed)